sat.trackr.live / text

‹ back to catalog

WILDFIRE 1

NORAD 57764 · 2023-133H

PAYLOAD ACTIVE UNKNOWN

§ Identity

Operator
Country
US
Launch date
2023-09-02
Launch site
AFWTR
Launch vehicle
Mass (kg)
RCS (m²)

External: N2YO · Heavens-Above · Gunter

§ Orbital elements

Epoch: 2026-05-25T03:29:24.188640Z

Period
103.92 min
Inclination
81.0014°
Eccentricity
0.0007402
Mean motion
13.85726826 rev/d
Perigee alt
938.2 km
Apogee alt
949.1 km
Semi-major
7,321.8 km
B*
7.3921e-5
RAAN
29.1133°
Arg perigee
65.2144°
Mean anomaly
294.9782°
Rev number
13,786

§ Raw data

WILDFIRE 11 57764U 23133H   26145.14541885  .00000096  00000+0  73921-4 0  99952 57764  81.0014  29.1133 0007402  65.2144 294.9782 13.85726826137863

JSON: /api/v1/satellites/57764 · /tle

For live sub-satellite position, see the globe view (requires WebGL).

§ Visibility from observer

Set your observer location to see the next 7 days of passes ≥ 10°. The values pass through the URL so the page stays shareable.

No JS? Fill the form by hand. The geolocation button needs JavaScript.

§ Radio — SatNOGS DB

ModeDescriptionDownlinkUplink
FM S-band telemetry 2.278 GHz

1 transmitter · refreshed weekly from db.satnogs.org